[TLELIST] Archives

 

Current TLEs

June 10th 2007 PDT

HST 1 20580U 90037B 07160.55731015 .00000379 00000-0 16557-4 0 8924 2 20580 028.4686 239.8760 0003361 019.3867 340.6852 15.00249071738817 ISS (ZARYA) 1 25544U 98067A 07161.47821878 .00013560 00000-0 80834-4 0 3659 2 25544 051.6323 138.5770 0007841 305.1694 149.1089 15.78266736489713 CXO 1 25867U 99040B 07162.37500000 .00000397 00000-0 00000+0 0 787 2 25867 061.8445 089.4499 6224774 284.2207 359.0648 00.37808770 2230 ____________________________________________________________________ These 2-Line ...Continue Reading

Current TLEs

June 9th 2007 PDT

HST 1 20580U 90037B 07158.62808700 .00000397 00000-0 17957-4 0 8919 2 20580 028.4689 252.4549 0003364 357.7226 002.3346 15.00248379738525 ISS (ZARYA) 1 25544U 98067A 07160.47327588 .00005874 00000-0 37334-4 0 3596 2 25544 051.6325 143.7706 0007848 299.7689 200.8227 15.78218913489556 CXO 1 25867U 99040B 07159.75000000 .00000486 00000-0 00000+0 0 778 2 25867 061.8237 089.5254 6221249 284.2152 001.8028 00.37808104 2226 ____________________________________________________________________ These 2-Line ...Continue Reading

Current TLEs

June 8th 2007 PDT

HST 1 20580U 90037B 07158.62808700 .00000397 00000-0 17957-4 0 8919 2 20580 028.4689 252.4549 0003364 357.7226 002.3346 15.00248379738525 ISS (ZARYA) 1 25544U 98067A 07159.45970028 .00005051 00000-0 32678-4 0 3521 2 25544 051.6318 149.0079 0007635 294.1579 203.8351 15.78202905489398 CXO 1 25867U 99040B 07159.75000000 .00000486 00000-0 00000+0 0 778 2 25867 061.8237 089.5254 6221249 284.2152 001.8028 00.37808104 2226 ____________________________________________________________________ These 2-Line ...Continue Reading

Current TLEs

June 7th 2007 PDT

HST 1 20580U 90037B 07156.69886342 +.00000381 +00000-0 +16742-4 0 08983 2 20580 028.4689 265.0338 0003397 336.3194 023.7241 15.00247385738239 ISS (ZARYA) 1 25544U 98067A 07158.33219907 .00006391 00000-0 40312-4 0 3464 2 25544 051.6310 154.8361 0007772 290.9348 276.8389 15.78197343489219 CXO 1 25867U 99040B 07157.08333333 .00000490 00000-0 00000+0 0 764 2 25867 061.8071 089.5815 6216385 284.2268 358.8327 00.37805720 2215 ____________________________________________________________________ These 2-Line ...Continue Reading

Current TLEs

June 6th 2007 PDT

HST 1 20580U 90037B 07155.70098856 .00000376 00000-0 16318-4 0 8892 2 20580 028.4688 271.5404 0003427 324.8114 035.2246 15.00246910738081 ISS (ZARYA) 1 25544U 98067A 07157.49679421 .00011185 00000-0 67582-4 0 3411 2 25544 051.6323 159.1510 0007585 285.5747 212.6740 15.78200037489081 CXO 1 25867U 99040B 07157.08333333 .00000490 00000-0 00000+0 0 764 2 25867 061.8071 089.5815 6216385 284.2268 358.8327 00.37805720 2215 ____________________________________________________________________ These 2-Line ...Continue Reading

Current TLEs

June 5th 2007 PDT

HST 1 20580U 90037B 07155.70098856 .00000376 00000-0 16318-4 0 8892 2 20580 028.4688 271.5404 0003427 324.8114 035.2246 15.00246910738081 ISS (ZARYA) 1 25544U 98067A 07156.15786507 .00010502 00000-0 63790-4 0 3348 2 25544 051.6321 166.0696 0007713 280.1585 165.8574 15.78166037488876 CXO 1 25867U 99040B 07157.08333333 .00000490 00000-0 00000+0 0 764 2 25867 061.8071 089.5815 6216385 284.2268 358.8327 00.37805720 2215 ____________________________________________________________________ These 2-Line ...Continue Reading

Current TLEs

June 4th 2007 PDT

HST 1 20580U 90037B 07154.57006371 .00000358 00000-0 14907-4 0 8888 2 20580 028.4689 278.9158 0003494 310.9000 049.1286 15.00246303737918 ISS (ZARYA) 1 25544U 98067A 07155.47279512 .00010341 00000-0 62916-4 0 3299 2 25544 051.6330 169.6098 0007682 277.6902 233.5512 15.78150132488762 CXO 1 25867U 99040B 07154.45833333 .00000466 00000-0 00000+0 0 759 2 25867 061.7946 089.6360 6211185 284.2574 001.4821 00.37804628 2209 ____________________________________________________________________ These 2-Line ...Continue Reading

Current TLEs

June 3rd 2007 PDT

HST 1 20580U 90037B 07152.70736259 .00000408 00000-0 18876-4 0 8870 2 20580 028.4691 291.0614 0003581 288.6724 071.3476 15.00245941737639 ISS (ZARYA) 1 25544U 98067A 07154.46106237 .00009945 00000-0 60723-4 0 3247 2 25544 051.6334 174.8394 0007591 274.2211 245.1662 15.78126503488601 CXO 1 25867U 99040B 07154.45833333 .00000466 00000-0 00000+0 0 759 2 25867 061.7946 089.6360 6211185 284.2574 001.4821 00.37804628 2209 ____________________________________________________________________ These 2-Line ...Continue Reading

Current TLEs

June 2nd 2007 PDT

HST 1 20580U 90037B 07152.70736259 .00000408 00000-0 18876-4 0 8870 2 20580 028.4691 291.0614 0003581 288.6724 071.3476 15.00245941737639 ISS (ZARYA) 1 25544U 98067A 07153.44456663 .00009063 00000-0 55748-4 0 3191 2 25544 051.6331 180.0930 0007730 269.4646 231.0751 15.78102541488447 CXO 1 25867U 99040B 07151.75000000 .00000447 00000-0 00000+0 0 744 2 25867 061.7828 089.6850 6205507 284.3104 352.7628 00.37804329 2196 ____________________________________________________________________ These 2-Line ...Continue Reading

Current TLEs

June 1st 2007 PDT

HST 1 20580U 90037B 07150.77813779 .00000477 00000-0 24232-4 0 8866 2 20580 028.4691 303.6406 0003578 269.6384 090.3794 15.00245448737349 ISS (ZARYA) 1 25544U 98067A 07152.46998731 .00000018 00000-0 10162-6 0 3137 2 25544 051.6327 185.1300 0007679 266.9118 093.1544 15.78072133488290 CXO 1 25867U 99040B 07151.75000000 .00000447 00000-0 00000+0 0 744 2 25867 061.7828 089.6850 6205507 284.3104 352.7628 00.37804329 2196 ____________________________________________________________________ These 2-Line ...Continue Reading
  • This mailing list is a public mailing list - anyone may join or leave, at any time.
  • This mailing list is announce-only.

International Space Station (ISS) / Hubble Space Telescope (HST) / Chandra X-Ray Observatory Orbital Data via EMAIL

Privacy Policy:

Private list